| time (UTC) | temp F | wind direction | speed MPH | gust MPH | rain 1hr in | rain 24hr in | rain mn in | humidity % | barometer mb |
| 20260502170501 | 56 | 50 | 6.0 | 15.0 | 0.00 | 0.04 | 0.04 | 52 | 1012.3 |
| 20260502164001 | 54 | 50 | 6.0 | 13.0 | 0.00 | 0.04 | 0.04 | 56 | 1012.9 |
| 20260502163500 | 54 | 50 | 7.0 | 13.0 | 0.00 | 0.04 | 0.04 | 53 | 1013.0 |
| 20260502163001 | 53 | 50 | 6.0 | 12.0 | 0.00 | 0.04 | 0.04 | 54 | 1013.1 |
| 20260502162500 | 53 | 50 | 5.0 | 12.0 | 0.00 | 0.04 | 0.04 | 53 | 1013.0 |
| 20260502161501 | 54 | 50 | 5.0 | 13.0 | 0.00 | 0.04 | 0.04 | 57 | 1013.0 |
| 20260502161001 | 54 | 50 | 5.0 | 13.0 | 0.00 | 0.04 | 0.04 | 55 | 1013.1 |
| 20260502160500 | 54 | 50 | 5.0 | 12.0 | 0.00 | 0.04 | 0.04 | 61 | 1013.1 |
| 20260502152001 | 52 | 50 | 8.0 | 15.0 | 0.00 | 0.04 | 0.04 | 58 | 1013.3 |
| 20260502151501 | 52 | 50 | 8.0 | 15.0 | 0.00 | 0.04 | 0.04 | 61 | 1013.3 |
| 20260502151000 | 52 | 50 | 7.0 | 13.0 | 0.00 | 0.04 | 0.04 | 58 | 1013.2 |
| 20260502150501 | 51 | 50 | 7.0 | 15.0 | 0.00 | 0.04 | 0.04 | 62 | 1013.3 |
| 20260502130501 | 48 | 50 | 7.0 | 13.0 | 0.00 | 0.04 | 0.04 | 75 | 1013.3 |
| 20260502123002 | 45 | 50 | 5.0 | 13.0 | 0.00 | 0.04 | 0.04 | 79 | 1013.4 |
| 20260502122500 | 45 | 50 | 6.0 | 14.0 | 0.00 | 0.04 | 0.04 | 79 | 1013.3 |
| 20260502122001 | 45 | 50 | 7.0 | 14.0 | 0.00 | 0.04 | 0.04 | 80 | 1013.3 |
| 20260502121501 | 45 | 50 | 6.0 | 13.0 | 0.00 | 0.04 | 0.04 | 80 | 1013.2 |
| 20260502121000 | 44 | 50 | 6.0 | 12.0 | 0.00 | 0.04 | 0.04 | 80 | 1013.1 |
| 20260502120501 | 44 | 50 | 6.0 | 14.0 | 0.00 | 0.04 | 0.04 | 80 | 1013.2 |
| 20260502115000 | 44 | 50 | 3.0 | 9.0 | 0.00 | 0.04 | 0.04 | 82 | 1013.3 |
| 20260502114501 | 44 | 50 | 3.0 | 5.0 | 0.00 | 0.04 | 0.04 | 83 | 1013.3 |
| 20260502114000 | 43 | 50 | 3.0 | 8.0 | 0.00 | 0.04 | 0.04 | 83 | 1013.3 |
| 20260502113500 | 43 | 50 | 3.0 | 8.0 | 0.00 | 0.04 | 0.04 | 85 | 1013.2 |
| 20260502113001 | 43 | 50 | 5.0 | 11.0 | 0.00 | 0.04 | 0.04 | 85 | 1013.1 |
| 20260502112501 | 43 | 50 | 5.0 | 11.0 | 0.00 | 0.04 | 0.04 | 86 | 1013.2 |
| 20260502112000 | 43 | 50 | 3.0 | 8.0 | 0.00 | 0.04 | 0.04 | 87 | 1013.3 |
| 20260502111000 | 43 | 50 | 4.0 | 9.0 | 0.00 | 0.04 | 0.04 | 88 | 1013.2 |
| 20260502110501 | 43 | 50 | 5.0 | 10.0 | 0.00 | 0.04 | 0.04 | 88 | 1013.1 |
| 20260502110006 | 43 | 50 | 6.0 | 11.0 | 0.00 | 0.04 | 0.04 | 88 | 1013.0 |
| 20260502105500 | 43 | 50 | 5.0 | 17.0 | 0.00 | 0.05 | 0.04 | 88 | 1013.0 |
| 20260502105000 | 43 | 50 | 11.0 | 18.0 | 0.00 | 0.05 | 0.04 | 88 | 1012.7 |
| 20260502104501 | 0 | 0.0 | 0.0 | 0.00 | 0.05 | 0.04 | 1012.6 | ||
| 20260502104000 | 0 | 0.0 | 0.0 | 0.00 | 0.05 | 0.04 | 1012.5 | ||
| 20260502102500 | 0 | 0.0 | 0.0 | 0.00 | 0.05 | 0.04 | 1012.4 | ||
| 20260502101501 | 0 | 0.0 | 0.0 | 0.00 | 0.05 | 0.04 | 1012.5 | ||
| 20260502101001 | 0 | 0.0 | 0.0 | 0.00 | 0.05 | 0.04 | 1012.3 | ||
| 20260502100500 | 0 | 0.0 | 0.0 | 0.00 | 0.05 | 0.04 | 1012.1 | ||
| 20260502091501 | 44 | 50 | 1.0 | 2.0 | 0.00 | 0.05 | 0.04 | 95 | 1011.5 |
| 20260502091000 | 44 | 50 | 0.0 | 2.0 | 0.00 | 0.05 | 0.04 | 95 | 1011.6 |
| 20260502090500 | 44 | 50 | 0.0 | 0.0 | 0.00 | 0.05 | 0.04 | 94 | 1011.5 |
| 20260502071501 | 46 | 50 | 0.0 | 0.0 | 0.03 | 0.05 | 0.04 | 91 | 1011.4 |
| 20260502071000 | 46 | 50 | 0.0 | 0.0 | 0.03 | 0.05 | 0.04 | 91 | 1011.5 |
| 20260502070500 | 46 | 50 | 0.0 | 0.0 | 0.03 | 0.05 | 0.04 | 90 | 1011.4 |
| 20260502070001 | 47 | 50 | 0.0 | 1.0 | 0.04 | 0.05 | 0.04 | 90 | 1011.5 |
| 20260502065500 | 47 | 50 | 0.0 | 2.0 | 0.03 | 0.04 | 0.03 | 90 | 1011.6 |
| 20260502065001 | 47 | 50 | 1.0 | 3.0 | 0.02 | 0.03 | 0.02 | 89 | 1011.8 |
| 20260502064501 | 47 | 50 | 1.0 | 3.0 | 0.02 | 0.03 | 0.02 | 89 | 1011.8 |
| 20260502064001 | 47 | 50 | 1.0 | 3.0 | 0.02 | 0.03 | 0.02 | 89 | 1011.9 |
| 20260502063500 | 47 | 50 | 1.0 | 4.0 | 0.02 | 0.03 | 0.02 | 88 | 1011.9 |
| 20260502062500 | 47 | 50 | 4.0 | 8.0 | 0.02 | 0.03 | 0.02 | 87 | 1012.0 |
| 20260502062000 | 47 | 50 | 4.0 | 8.0 | 0.01 | 0.02 | 0.01 | 86 | 1012.1 |
| 20260502061001 | 48 | 50 | 3.0 | 8.0 | 0.01 | 0.02 | 0.01 | 86 | 1012.4 |
| 20260502060500 | 48 | 50 | 4.0 | 6.0 | 0.01 | 0.02 | 0.01 | 85 | 1012.4 |
| 20260502060002 | 48 | 50 | 2.0 | 6.0 | 0.00 | 0.01 | 0.00 | 85 | 1012.5 |
| 20260502055500 | 48 | 50 | 2.0 | 4.0 | 0.00 | 0.01 | 0.00 | 85 | 1012.5 |
| 20260502055000 | 48 | 50 | 2.0 | 4.0 | 0.00 | 0.01 | 0.00 | 85 | 1012.5 |
| 20260502054000 | 48 | 50 | 3.0 | 5.0 | 0.00 | 0.01 | 0.00 | 85 | 1012.4 |
| 20260502053500 | 48 | 50 | 2.0 | 6.0 | 0.00 | 0.01 | 0.00 | 84 | 1012.3 |
| 20260502053001 | 49 | 50 | 3.0 | 9.0 | 0.00 | 0.01 | 0.00 | 84 | 1012.2 |
| 20260502052500 | 49 | 50 | 4.0 | 9.0 | 0.00 | 0.01 | 0.00 | 84 | 1012.3 |
| 20260502052000 | 49 | 50 | 5.0 | 9.0 | 0.00 | 0.01 | 0.00 | 83 | 1012.4 |
| 20260502051501 | 49 | 50 | 4.0 | 9.0 | 0.00 | 0.01 | 0.00 | 84 | 1012.4 |
| 20260502051000 | 49 | 50 | 4.0 | 9.0 | 0.00 | 0.01 | 0.00 | 84 | 1012.5 |
| 20260502050001 | 49 | 50 | 3.0 | 8.0 | 0.00 | 0.01 | 0.00 | 85 | 1012.4 |
| 20260502045500 | 49 | 50 | 3.0 | 8.0 | 0.00 | 0.01 | 0.00 | 85 | 1012.5 |
| 20260502045001 | 49 | 50 | 5.0 | 11.0 | 0.00 | 0.01 | 0.00 | 85 | 1012.4 |
| 20260502044002 | 49 | 50 | 5.0 | 10.0 | 0.00 | 0.01 | 0.00 | 86 | 1012.6 |
| 20260502043500 | 49 | 50 | 3.0 | 6.0 | 0.00 | 0.01 | 0.00 | 87 | 1012.4 |
| 20260502043001 | 49 | 50 | 3.0 | 6.0 | 0.00 | 0.01 | 0.00 | 87 | 1012.3 |
| 20260502042500 | 48 | 50 | 2.0 | 5.0 | 0.00 | 0.01 | 0.00 | 88 | 1012.3 |
| 20260502042000 | 48 | 50 | 0.0 | 5.0 | 0.00 | 0.01 | 0.00 | 89 | 1012.2 |
| 20260502041501 | 48 | 50 | 0.0 | 0.0 | 0.00 | 0.01 | 0.00 | 90 | 1012.2 |
| 20260502041000 | 48 | 50 | 0.0 | 0.0 | 0.00 | 0.01 | 0.00 | 89 | 1012.1 |
| 20260502040001 | 48 | 50 | 0.0 | 0.0 | 0.00 | 0.01 | 0.01 | 90 | 1012.0 |
| 20260502035500 | 48 | 50 | 0.0 | 0.0 | 0.00 | 0.01 | 0.01 | 89 | 1011.8 |
| 20260502034501 | 48 | 50 | 0.0 | 0.0 | 0.00 | 0.01 | 0.01 | 89 | 1011.7 |
| 20260502034000 | 48 | 50 | 0.0 | 0.0 | 0.00 | 0.01 | 0.01 | 90 | 1011.8 |
| 20260502033501 | 48 | 50 | 0.0 | 0.0 | 0.00 | 0.01 | 0.01 | 89 | 1012.0 |
| 20260502033001 | 48 | 50 | 0.0 | 0.0 | 0.00 | 0.01 | 0.01 | 90 | 1011.9 |
| 20260502032500 | 48 | 50 | 0.0 | 0.0 | 0.00 | 0.01 | 0.01 | 90 | 1011.9 |
| 20260502031501 | 48 | 50 | 0.0 | 0.0 | 0.00 | 0.01 | 0.01 | 90 | 1011.8 |
| 20260502031000 | 48 | 50 | 0.0 | 0.0 | 0.00 | 0.01 | 0.01 | 89 | 1011.6 |
| 20260502030500 | 48 | 50 | 0.0 | 0.0 | 0.00 | 0.01 | 0.01 | 89 | 1011.6 |
| 20260502030001 | 48 | 50 | 0.0 | 0.0 | 0.00 | 0.01 | 0.01 | 89 | 1011.6 |
| 20260502025500 | 48 | 50 | 0.0 | 0.0 | 0.00 | 0.01 | 0.01 | 89 | 1011.7 |
| 20260502024501 | 48 | 50 | 0.0 | 0.0 | 0.00 | 0.01 | 0.01 | 89 | 1011.6 |
| 20260502024000 | 48 | 50 | 0.0 | 0.0 | 0.00 | 0.01 | 0.01 | 88 | 1011.7 |
| 20260502023500 | 48 | 50 | 0.0 | 0.0 | 0.00 | 0.01 | 0.01 | 88 | 1011.6 |
| 20260502022500 | 49 | 50 | 0.0 | 0.0 | 0.00 | 0.01 | 0.01 | 88 | 1011.8 |
| 20260502022000 | 49 | 50 | 0.0 | 0.0 | 0.00 | 0.01 | 0.01 | 88 | 1012.0 |
| 20260502021501 | 49 | 50 | 0.0 | 0.0 | 0.00 | 0.01 | 0.01 | 88 | 1011.9 |
| 20260502021001 | 49 | 50 | 0.0 | 0.0 | 0.00 | 0.01 | 0.01 | 88 | 1011.9 |
| 20260502020500 | 49 | 50 | 0.0 | 0.0 | 0.00 | 0.01 | 0.01 | 87 | 1011.9 |
| 20260502015500 | 49 | 50 | 0.0 | 0.0 | 0.00 | 0.05 | 0.01 | 87 | 1011.9 |
| 20260502015000 | 49 | 50 | 0.0 | 0.0 | 0.00 | 0.05 | 0.01 | 87 | 1011.8 |
| 20260502014501 | 49 | 50 | 0.0 | 0.0 | 0.00 | 0.05 | 0.01 | 87 | 1011.7 |
| 20260502014000 | 49 | 50 | 0.0 | 2.0 | 0.00 | 0.05 | 0.01 | 86 | 1011.7 |
| 20260502013500 | 50 | 50 | 0.0 | 2.0 | 0.00 | 0.05 | 0.01 | 86 | 1011.7 |
| 20260502013001 | 50 | 50 | 0.0 | 2.0 | 0.00 | 0.05 | 0.01 | 84 | 1011.5 |
| 20260502012500 | 50 | 50 | 0.0 | 1.0 | 0.00 | 0.05 | 0.01 | 84 | 1011.6 |
| 20260502012000 | 50 | 50 | 0.0 | 1.0 | 0.00 | 0.05 | 0.01 | 84 | 1011.7 |
| 20260502011501 | 50 | 50 | 0.0 | 0.0 | 0.00 | 0.05 | 0.01 | 84 | 1011.7 |
| 20260502011000 | 51 | 50 | 0.0 | 0.0 | 0.00 | 0.05 | 0.01 | 83 | 1011.8 |
| 20260502010500 | 51 | 50 | 0.0 | 0.0 | 0.00 | 0.05 | 0.01 | 82 | 1011.9 |
| 20260502010001 | 51 | 50 | 0.0 | 0.0 | 0.00 | 0.06 | 0.01 | 81 | 1011.6 |
| 20260502005500 | 51 | 50 | 0.0 | 0.0 | 0.00 | 0.06 | 0.01 | 80 | 1011.7 |
| 20260502005000 | 51 | 50 | 0.0 | 0.0 | 0.00 | 0.06 | 0.01 | 79 | 1011.7 |
| 20260502004501 | 51 | 50 | 0.0 | 0.0 | 0.00 | 0.06 | 0.01 | 78 | 1011.7 |
| 20260502004000 | 52 | 50 | 0.0 | 0.0 | 0.00 | 0.06 | 0.01 | 78 | 1011.6 |
| 20260502003001 | 52 | 50 | 3.0 | 8.0 | 0.00 | 0.06 | 0.01 | 76 | 1011.6 |
| 20260502002500 | 52 | 50 | 4.0 | 8.0 | 0.00 | 0.06 | 0.01 | 76 | 1011.5 |
| 20260502002000 | 52 | 50 | 5.0 | 9.0 | 0.00 | 0.06 | 0.01 | 75 | 1011.4 |
| 20260502001501 | 53 | 50 | 6.0 | 14.0 | 0.00 | 0.06 | 0.01 | 74 | 1011.4 |
| 20260502001000 | 53 | 50 | 6.0 | 14.0 | 0.00 | 0.06 | 0.01 | 72 | 1011.5 |
| 20260502000500 | 54 | 50 | 5.0 | 8.0 | 0.00 | 0.06 | 0.01 | 70 | 1011.5 |
| 20260502000001 | 55 | 50 | 6.0 | 10.0 | 0.00 | 0.06 | 0.01 | 67 | 1011.5 |
| 20260501235000 | 55 | 50 | 8.0 | 17.0 | 0.00 | 0.06 | 0.01 | 64 | 1011.2 |
| 20260501234501 | 56 | 50 | 6.0 | 17.0 | 0.00 | 0.06 | 0.01 | 64 | 1011.2 |
| 20260501234000 | 57 | 50 | 4.0 | 13.0 | 0.00 | 0.06 | 0.01 | 59 | 1011.0 |
| 20260501233500 | 58 | 50 | 4.0 | 13.0 | 0.00 | 0.06 | 0.01 | 57 | 1010.7 |
| 20260501233001 | 58 | 50 | 3.0 | 6.0 | 0.00 | 0.06 | 0.01 | 54 | 1010.6 |
| 20260501232000 | 58 | 50 | 1.0 | 2.0 | 0.00 | 0.06 | 0.01 | 52 | 1010.3 |
| 20260501231501 | 58 | 50 | 1.0 | 2.0 | 0.00 | 0.06 | 0.01 | 52 | 1010.2 |
| 20260501231000 | 58 | 50 | 1.0 | 3.0 | 0.00 | 0.06 | 0.01 | 51 | 1010.1 |
| 20260501230500 | 58 | 50 | 2.0 | 3.0 | 0.00 | 0.06 | 0.01 | 51 | 1010.1 |
| 20260501230005 | 58 | 50 | 2.0 | 5.0 | 0.00 | 0.06 | 0.01 | 51 | 1010.1 |
| 20260501225500 | 59 | 50 | 3.0 | 5.0 | 0.00 | 0.10 | 0.01 | 50 | 1010.0 |
| 20260501225000 | 59 | 50 | 3.0 | 5.0 | 0.00 | 0.10 | 0.01 | 52 | 1010.1 |
| 20260501224501 | 59 | 50 | 4.0 | 8.0 | 0.00 | 0.10 | 0.01 | 51 | 1010.1 |
| 20260501223500 | 60 | 50 | 4.0 | 9.0 | 0.00 | 0.10 | 0.01 | 50 | 1010.0 |
| 20260501223001 | 60 | 50 | 5.0 | 10.0 | 0.00 | 0.10 | 0.01 | 52 | 1010.1 |
| 20260501222500 | 60 | 50 | 6.0 | 10.0 | 0.00 | 0.10 | 0.01 | 49 | 1010.1 |
| 20260501222000 | 60 | 50 | 6.0 | 11.0 | 0.00 | 0.10 | 0.01 | 49 | 1010.2 |
| 20260501221501 | 60 | 50 | 5.0 | 11.0 | 0.00 | 0.10 | 0.01 | 52 | 1010.2 |
| 20260501220501 | 59 | 50 | 6.0 | 10.0 | 0.00 | 0.10 | 0.01 | 50 | 1010.3 |
| 20260501220001 | 59 | 50 | 6.0 | 11.0 | 0.00 | 0.10 | 0.01 | 49 | 1010.4 |
| 20260501215500 | 59 | 50 | 5.0 | 11.0 | 0.00 | 0.10 | 0.01 | 51 | 1010.5 |
| 20260501215000 | 59 | 50 | 7.0 | 15.0 | 0.00 | 0.10 | 0.01 | 50 | 1010.5 |
| 20260501213500 | 60 | 50 | 5.0 | 12.0 | 0.00 | 0.10 | 0.01 | 51 | 1010.3 |
| 20260501213001 | 61 | 50 | 6.0 | 12.0 | 0.00 | 0.10 | 0.01 | 49 | 1010.3 |
| 20260501212001 | 60 | 50 | 6.0 | 13.0 | 0.00 | 0.10 | 0.01 | 51 | 1010.4 |
| 20260501211501 | 60 | 50 | 8.0 | 14.0 | 0.00 | 0.10 | 0.01 | 48 | 1010.4 |
| 20260501210001 | 60 | 50 | 6.0 | 11.0 | 0.00 | 0.10 | 0.01 | 49 | 1010.4 |
| 20260501205502 | 60 | 50 | 7.0 | 14.0 | 0.00 | 0.10 | 0.01 | 48 | 1010.3 |
| 20260501205000 | 61 | 50 | 8.0 | 14.0 | 0.00 | 0.10 | 0.01 | 45 | 1010.3 |
| 20260501204501 | 61 | 50 | 8.0 | 13.0 | 0.00 | 0.10 | 0.01 | 49 | 1010.2 |
| 20260501204000 | 61 | 50 | 9.0 | 19.0 | 0.00 | 0.10 | 0.01 | 49 | 1010.3 |
| 20260501203001 | 61 | 50 | 8.0 | 16.0 | 0.00 | 0.10 | 0.01 | 49 | 1010.3 |
| 20260501202500 | 62 | 50 | 7.0 | 13.0 | 0.00 | 0.10 | 0.01 | 48 | 1010.4 |
| 20260501202000 | 62 | 50 | 6.0 | 13.0 | 0.00 | 0.10 | 0.01 | 51 | 1010.5 |
| 20260501201000 | 61 | 50 | 7.0 | 16.0 | 0.00 | 0.10 | 0.01 | 45 | 1010.5 |
| 20260501200500 | 61 | 50 | 7.0 | 16.0 | 0.00 | 0.10 | 0.01 | 49 | 1010.6 |
| 20260501200001 | 61 | 50 | 8.0 | 16.0 | 0.00 | 0.10 | 0.01 | 47 | 1010.6 |
| 20260501195500 | 61 | 50 | 8.0 | 16.0 | 0.00 | 0.10 | 0.01 | 51 | 1010.7 |
| 20260501195000 | 61 | 50 | 7.0 | 14.0 | 0.00 | 0.10 | 0.01 | 48 | 1010.7 |
| 20260501194501 | 61 | 50 | 7.0 | 12.0 | 0.00 | 0.10 | 0.01 | 49 | 1010.7 |
| 20260501194000 | 61 | 50 | 8.0 | 15.0 | 0.00 | 0.10 | 0.01 | 51 | 1010.7 |
| 20260501193001 | 62 | 50 | 6.0 | 12.0 | 0.00 | 0.10 | 0.01 | 46 | 1010.8 |
| 20260501192500 | 61 | 50 | 7.0 | 14.0 | 0.00 | 0.10 | 0.01 | 53 | 1010.9 |
| 20260501192000 | 61 | 50 | 7.0 | 15.0 | 0.00 | 0.10 | 0.01 | 46 | 1010.9 |
| 20260501191000 | 61 | 50 | 6.0 | 14.0 | 0.00 | 0.10 | 0.01 | 51 | 1011.0 |
| 20260501190500 | 61 | 50 | 7.0 | 14.0 | 0.00 | 0.10 | 0.01 | 47 | 1011.1 |
| 20260501190004 | 61 | 50 | 6.0 | 14.0 | 0.00 | 0.10 | 0.01 | 49 | 1011.0 |
| 20260501185501 | 61 | 50 | 5.0 | 11.0 | 0.00 | 0.10 | 0.01 | 48 | 1011.3 |
| 20260501185000 | 61 | 50 | 5.0 | 11.0 | 0.00 | 0.10 | 0.01 | 53 | 1011.2 |
| 20260501184000 | 60 | 50 | 6.0 | 11.0 | 0.00 | 0.10 | 0.01 | 50 | 1011.3 |
| 20260501183500 | 60 | 50 | 6.0 | 13.0 | 0.00 | 0.10 | 0.01 | 52 | 1011.5 |
| 20260501183001 | 60 | 50 | 5.0 | 13.0 | 0.00 | 0.10 | 0.01 | 51 | 1011.5 |
| 20260501182500 | 60 | 50 | 7.0 | 15.0 | 0.00 | 0.10 | 0.01 | 47 | 1011.5 |
| 20260501182000 | 60 | 50 | 7.0 | 15.0 | 0.00 | 0.10 | 0.01 | 51 | 1011.5 |
| 20260501181501 | 60 | 50 | 7.0 | 17.0 | 0.00 | 0.10 | 0.01 | 50 | 1011.5 |
| 20260501181001 | 59 | 50 | 7.0 | 17.0 | 0.00 | 0.10 | 0.01 | 54 | 1011.5 |
| 20260501180500 | 59 | 50 | 4.0 | 17.0 | 0.00 | 0.10 | 0.01 | 53 | 1011.3 |
| 20260501180001 | 59 | 50 | 4.0 | 11.0 | 0.00 | 0.10 | 0.01 | 50 | 1011.6 |
| 20260501175500 | 59 | 50 | 4.0 | 9.0 | 0.00 | 0.10 | 0.01 | 57 | 1011.7 |
| 20260501174501 | 59 | 50 | 6.0 | 13.0 | 0.00 | 0.10 | 0.01 | 51 | 1011.7 |